Richmond Hanover County, VA

3:22 PM EDT on July 22, 2017 (GMT -0400)
Hanover County Municipal

Weather History for KOFP - July, 2013

Change the Weather History Date:

Wednesday, July 10, 2013

  Actual Average Record
Temperature  
Mean Temperature 80 °F -  
Max Temperature 89 °F 88 °F 98 °F (1988)
Min Temperature 71 °F 67 °F 49 °F (1963)
Cooling Degree Days 14    
Growing Degree Days 30 (Base 50)    
Moisture  
Dew Point 73 °F    
Average Humidity 84    
Maximum Humidity 100    
Minimum Humidity 58    
Precipitation  
Precipitation 0.75 in - - ()
Sea Level Pressure  
Sea Level Pressure 29.99 in    
Wind  
Wind Speed 7 mph (SSW)    
Max Wind Speed 22 mph    
Max Gust Speed 30 mph    
Visibility 7 miles    
Events Fog , Rain , Thunderstorm    
Averages and records for this station are not official NWS values.
T = Trace of Precipitation, MM = Missing Value Source: NWS Daily Summary

Daily Weather History Graph

Daily Weather History Graph

Search for Another Location

Airport or City:

Trip Planner

Search our weather history database for the weather conditions in past years. The results will help you decide how hot, cold, wet, or windy it might be!

Date:

Astronomy

Jul. 10, 2013 Rise Set
Actual Time 5:56 AM EDT 8:33 PM EDT
Civil Twilight 5:26 AM EDT 9:03 PM EDT
Nautical Twilight 4:47 AM EDT 9:42 PM EDT
Astronomical Twilight 4:05 AM EDT 10:24 PM EDT
Moon 8:12 AM EDT (7/10) 9:46 PM EDT (7/10)
Length of Visible Light 15h 37m
Length of Day
14h 36m
Waxing Crescent, 5% of the Moon is Illuminated
Jul 10
Waxing Crescent
Jul 15
First Quarter
Jul 22
Full
Jul 29
Last Quarter
Aug 6
New

Hourly Weather History & Observations

Time (EDT) Temp. Heat Index Dew Point Humidity Pressure Visibility Wind Dir Wind Speed Gust Speed Precip Events Conditions
12:54 AM 79.0 °F - 72.0 °F 79% 30.06 in 10.0 mi SSW 8.1 mph - N/A   Mostly Cloudy
1:54 AM 78.1 °F - 72.0 °F 81% 30.04 in 10.0 mi SSW 5.8 mph - N/A   Clear
2:54 AM 77.0 °F - 72.0 °F 84% 30.04 in 10.0 mi South 10.4 mph - N/A   Mostly Cloudy
3:54 AM 75.9 °F - 72.0 °F 87% 30.03 in 9.0 mi SSW 10.4 mph - N/A   Clear
4:54 AM 75.0 °F - 71.1 °F 87% 30.03 in 9.0 mi SSW 5.8 mph - N/A   Clear
5:54 AM 75.0 °F - 71.1 °F 87% 30.03 in 10.0 mi South 6.9 mph - N/A   Scattered Clouds
6:54 AM 75.0 °F - 71.1 °F 87% 30.03 in 7.0 mi SW 6.9 mph - N/A   Scattered Clouds
7:54 AM 75.9 °F - 72.0 °F 87% 30.02 in 8.0 mi SSW 8.1 mph - N/A   Clear
8:54 AM 81.0 °F 85.8 °F 73.0 °F 77% 30.03 in 10.0 mi Variable 6.9 mph - N/A   Clear
9:54 AM 82.0 °F 87.4 °F 73.0 °F 74% 30.03 in 10.0 mi SW 8.1 mph - N/A   Partly Cloudy
10:54 AM 82.9 °F 88.8 °F 73.0 °F 72% 30.03 in 10.0 mi WSW 4.6 mph - N/A   Partly Cloudy
11:54 AM 84.0 °F 91.2 °F 73.9 °F 72% 30.02 in 10.0 mi Variable 4.6 mph - N/A   Clear
12:31 PM 84.2 °F 90.9 °F 73.4 °F 70% 30.03 in 10.0 mi SSW 8.1 mph - N/A   Mostly Cloudy
12:44 PM 86.0 °F 93.4 °F 73.4 °F 66% 30.03 in 10.0 mi West 5.8 mph - N/A   Mostly Cloudy
12:54 PM 86.0 °F 93.8 °F 73.9 °F 67% 30.02 in 10.0 mi Variable 3.5 mph - N/A   Mostly Cloudy
1:01 PM 86.0 °F 93.4 °F 73.4 °F 66% 30.02 in 10.0 mi SSW 4.6 mph - N/A   Partly Cloudy
1:54 PM 88.0 °F 97.5 °F 75.0 °F 65% 29.99 in 10.0 mi SSW 5.8 mph - N/A   Partly Cloudy
2:54 PM 87.1 °F 93.6 °F 72.0 °F 61% 29.96 in 10.0 mi South 12.7 mph 18.4 mph N/A   Scattered Clouds
3:01 PM 87.8 °F 93.8 °F 71.6 °F 58% 29.97 in 10.0 mi SSW 8.1 mph - N/A Thunderstorm Scattered Clouds
3:52 PM 87.8 °F 97.6 °F 75.2 °F 66% 29.94 in 10.0 mi South 5.8 mph - N/A   Partly Cloudy
3:54 PM 87.1 °F 96.3 °F 75.0 °F 67% 29.94 in 10.0 mi SE 8.1 mph - N/A   Partly Cloudy
4:09 PM 84.2 °F 92.3 °F 75.2 °F 74% 29.93 in 10.0 mi Variable 4.6 mph - N/A Thunderstorm Mostly Cloudy
4:39 PM 82.4 °F 88.2 °F 73.4 °F 74% 29.95 in 1.2 mi SSW 21.9 mph 29.9 mph 0.12 in   Haze
4:46 PM 78.8 °F - 75.2 °F 89% 29.95 in 0.5 mi SE 10.4 mph 29.9 mph 0.24 in Fog , Rain Heavy Rain
4:50 PM 78.8 °F - 75.2 °F 89% 29.95 in 1.0 mi ESE 8.1 mph 17.3 mph 0.24 in Rain , Thunderstorm Light Thunderstorms and Rain
4:52 PM 80.6 °F 86.2 °F 75.2 °F 84% 29.94 in 2.5 mi Variable 5.8 mph 17.3 mph 0.24 in Rain , Thunderstorm Light Thunderstorms and Rain
4:54 PM 80.1 °F 85.4 °F 75.9 °F 87% 29.94 in 5.0 mi Variable 4.6 mph 17.3 mph 0.24 in Rain , Thunderstorm Light Thunderstorms and Rain
5:32 PM 78.8 °F - 73.4 °F 83% 29.94 in 10.0 mi SE 3.5 mph - 0.00 in   Clear
5:54 PM 79.0 °F - 75.0 °F 88% 29.94 in 10.0 mi Calm Calm - 0.00 in   Partly Cloudy
6:45 PM 73.4 °F - 69.8 °F 88% 29.98 in 6.0 mi WSW 17.3 mph 24.2 mph 0.03 in Rain , Thunderstorm Rain
6:54 PM 73.0 °F - 70.0 °F 90% 29.98 in 7.0 mi West 9.2 mph 19.6 mph 0.03 in Rain , Thunderstorm Light Rain
7:08 PM 71.6 °F - 69.8 °F 94% 29.98 in 1.8 mi WSW 8.1 mph - 0.07 in Rain , Thunderstorm Heavy Rain
7:14 PM 71.6 °F - 69.8 °F 94% 29.98 in 3.0 mi WSW 5.8 mph - 0.07 in Rain , Thunderstorm Light Thunderstorms and Rain
7:54 PM 72.0 °F - 71.1 °F 97% 29.97 in 3.0 mi Calm Calm - 0.11 in Rain , Thunderstorm Thunderstorms and Rain
8:05 PM 71.6 °F - 71.6 °F 100% 29.97 in 2.5 mi Calm Calm - 0.04 in Rain Rain
8:24 PM 71.6 °F - 71.6 °F 100% 29.97 in 3.0 mi Calm Calm - 0.08 in Rain Light Rain
8:54 PM 72.0 °F - 71.1 °F 97% 29.94 in 7.0 mi Calm Calm - 0.09 in   Partly Cloudy
9:51 PM 73.4 °F - 71.6 °F 94% 29.97 in 8.0 mi West 9.2 mph - 0.01 in Thunderstorm Scattered Clouds
9:54 PM 73.0 °F - 72.0 °F 96% 29.96 in 9.0 mi West 6.9 mph - 0.01 in Thunderstorm Scattered Clouds
10:06 PM 73.4 °F - 71.6 °F 94% 29.97 in 10.0 mi WNW 8.1 mph - N/A Thunderstorm Mostly Cloudy
10:23 PM 73.4 °F - 71.6 °F 94% 29.98 in 3.0 mi Variable 4.6 mph - 0.06 in Rain , Thunderstorm Heavy Thunderstorms and Rain
10:27 PM 73.4 °F - 71.6 °F 94% 29.98 in 2.0 mi SSW 13.8 mph 19.6 mph 0.09 in Rain , Thunderstorm Heavy Thunderstorms and Rain
10:29 PM 73.4 °F - 73.4 °F 100% 29.98 in 1.8 mi South 11.5 mph 19.6 mph 0.13 in Rain , Thunderstorm Heavy Thunderstorms and Rain
10:37 PM 73.4 °F - 73.4 °F 100% 29.98 in 2.0 mi SSW 5.8 mph - 0.17 in Rain , Thunderstorm Thunderstorms and Rain
10:45 PM 73.4 °F - 73.4 °F 100% 29.98 in 8.0 mi South 5.8 mph - 0.17 in Rain , Thunderstorm Light Thunderstorms and Rain
10:54 PM 73.9 °F - 72.0 °F 93% 29.97 in 5.0 mi South 6.9 mph - 0.18 in Rain , Thunderstorm Light Thunderstorms and Rain
11:15 PM 73.4 °F - 71.6 °F 94% 29.97 in 5.0 mi South 8.1 mph - 0.06 in Rain Light Rain
11:54 PM 73.0 °F - 72.0 °F 96% 29.96 in 6.0 mi South 8.1 mph - 0.09 in Rain Light Rain